Location: Shepherdstown, WV
(39.4326°N, 77.8042°W)
Time: 08:23:47
(UTC-04:00)

Tiros 1 - Visible Passes

Search period start: 02 August 2021 00:00
Search period end: 12 August 2021 00:00
Orbit: 630 x 664 km, 48.4° (Epoch: 02 August)

Date Brightness Start Highest point End Pass type
(mag) Time Alt. Az. Time Alt. Az. Time Alt. Az.
02 Aug 8.4 00:03:43 10° NW 00:06:50 38° NW 00:06:50 38° NW visible
02 Aug 9.0 21:04:40 10° WNW 21:08:46 28° N 21:12:50 10° NE visible
02 Aug 8.4 22:47:30 10° NW 22:51:53 36° NNE 22:53:33 27° ENE visible
03 Aug 9.3 00:29:40 10° WNW 00:31:10 20° WNW 00:31:10 20° WNW visible
03 Aug 8.9 21:31:05 10° NW 21:35:12 28° N 21:39:17 10° ENE visible
03 Aug 7.6 23:13:26 10° NW 23:17:56 56° NNE 23:17:56 56° NNE visible
04 Aug 8.4 21:57:13 10° NW 22:01:35 35° NNE 22:04:44 16° ENE visible
04 Aug 8.3 23:39:23 10° WNW 23:42:21 38° WNW 23:42:21 38° WNW visible
05 Aug 8.9 20:40:46 10° NW 20:44:53 28° N 20:48:58 10° ENE visible
05 Aug 7.6 22:23:09 10° NW 22:27:49 53° NNE 22:29:11 39° ENE visible
06 Aug 9.5 00:05:36 10° WNW 00:06:49 17° W 00:06:49 17° W visible
06 Aug 8.5 21:06:55 10° NW 21:11:16 34° NNE 21:15:35 10° E visible
06 Aug 7.1 22:49:06 10° WNW 22:53:42 82° W 22:53:42 82° W visible
07 Aug 7.7 21:32:53 10° NW 21:37:32 50° NNE 21:40:36 20° E visible
07 Aug 8.5 23:15:16 10° WNW 23:18:15 31° W 23:18:15 31° W visible
08 Aug 7.1 21:58:49 10° WNW 22:03:35 90° NNW 22:05:12 41° ESE visible
08 Aug 9.7 23:42:08 10° W 23:42:51 13° W 23:42:51 13° W visible
09 Aug 7.8 20:42:36 10° NW 20:47:14 48° NNE 20:51:48 10° E visible
09 Aug 7.7 22:24:56 10° WNW 22:29:26 43° SW 22:29:52 42° SSW visible
10 Aug 7.2 21:08:32 10° WNW 21:13:19 84° NNE 21:16:55 17° ESE visible
10 Aug 9.1 22:51:41 10° W 22:54:34 19° SW 22:54:34 19° SW visible
11 Aug 7.8 21:34:37 10° WNW 21:39:11 47° SW 21:41:42 24° SSE visible
